BD-28 (48867 NORAD) Tracking and Keplerian Element Data

This shows tracking and keplerian element data for the satellite.

Feedback or suggestion? Click here.




ElementValue
Catalog48867
NameBD-28
Epoch Orbit1487
Epoch Day269.08544155
Epoch Year2021
RAAN202.54
Inclination51.6415
Eccentricity0.000312
Argument of Perigee166.6397
Mean Anonmoly193.4675
Mean Motion15.51458569
Decay Rate0.00016577
L11 48867U 98067SN 21269.08544155 .00016577 00000-0 28288-3 0 9992
L22 48867 51.6415 202.5400 0003120 166.6397 193.4675 15.51458569 14878

Live tracking and technical data element details for BD-28 (NORAD 48867). BD-28 can be tracked NOW for your location showing map with azimuth and elevation plus other details from your city location.

Track the satellite on the map from your city or location and see movement details for azimuth, elevation, latitude, longitude, range, height, and movement on the map or in text.







IsCatalogInMostPopularTable: catalog: 48867, numindb: 20
Update: records affected: 1



GetName: 48867 BD-28

Hit Count: updated at: Sun, 26 Sep 2021 16:12:38 GMT